When you browse on this site, cookies collect data to enhance your experience and personalize the content and advertising you see.
Visit our Privacy Policy to learn more. By continuing to use the site, you agree to this use of cookies and data.
  • In Österreich
  • Länderverzeichnis
  • Für 7 Tage
  • Wassertemperatur
  • Satellitenkarten
  • Wetterkarte
  • News
  • Widgets
  • user-avatar
    Anmelden

    Stündliche Wetter Wavre

    Heute, 17 Februar, Sonntag

    Zeit Temperatur Niederschläge Wind Luftdruck Luftfeuchtigkeit
    00:00 +7°C° 0 mm 3 m/S 762 mmHg 82%
    01:00 +7°C° 0 mm 3 m/S 762 mmHg 82%
    02:00 +5°C° 0 mm 3 m/S 761 mmHg 83%
    03:00 +5°C° 0 mm 3 m/S 761 mmHg 84%
    04:00 +5°C° 0 mm 3 m/S 761 mmHg 85%
    05:00 +5°C° 0 mm 3 m/S 760 mmHg 85%
    06:00 +5°C° 0 mm 3 m/S 760 mmHg 86%
    07:00 +6°C° 0 mm 4 m/S 760 mmHg 80%
    08:00 +7°C° 0 mm 4 m/S 760 mmHg 74%
    09:00 +8°C° 0 mm 5 m/S 760 mmHg 68%
    10:00 +9°C° 0 mm 5 m/S 760 mmHg 63%
    11:00 +12°C° 0 mm 5 m/S 759 mmHg 58%
    12:00 +13°C° 0 mm 5 m/S 759 mmHg 54%
    13:00 +13°C° 0 mm 5 m/S 759 mmHg 53%
    14:00 +14°C° 0 mm 5 m/S 759 mmHg 53%
    15:00 +14°C° 0 mm 5 m/S 758 mmHg 52%
    16:00 +12°C° 0 mm 5 m/S 758 mmHg 57%
    17:00 +11°C° 0 mm 4 m/S 758 mmHg 62%
    18:00 +8°C° 0 mm 4 m/S 758 mmHg 67%
    19:00 +8°C° 0 mm 4 m/S 758 mmHg 67%
    20:00 +7°C° 0 mm 4 m/S 759 mmHg 68%
    21:00 +7°C° 0 mm 4 m/S 759 mmHg 68%
    22:00 +6°C° 0 mm 4 m/S 759 mmHg 69%
    23:00 +6°C° 0 mm 4 m/S 759 mmHg 70%

    Morgen, 18 Februar, Montag

    Zeit Temperatur Niederschläge Wind Luftdruck Luftfeuchtigkeit
    00:00 +6°C° 0 mm 4 m/S 759 mmHg 71%
    01:00 +6°C° 0 mm 4 m/S 758 mmHg 72%
    02:00 +5°C° 0 mm 4 m/S 758 mmHg 73%
    03:00 +5°C° 0 mm 4 m/S 758 mmHg 74%
    04:00 +5°C° 0 mm 4 m/S 758 mmHg 76%
    05:00 +5°C° 0 mm 4 m/S 758 mmHg 77%
    06:00 +4°C° 0 mm 3 m/S 758 mmHg 78%
    07:00 +5°C° 0 mm 4 m/S 758 mmHg 75%
    08:00 +6°C° 0 mm 4 m/S 758 mmHg 73%
    09:00 +7°C° 0 mm 4 m/S 758 mmHg 70%
    10:00 +8°C° 0 mm 4 m/S 757 mmHg 67%
    11:00 +11°C° 0 mm 4 m/S 757 mmHg 65%
    12:00 +12°C° 0 mm 5 m/S 757 mmHg 62%
    13:00 +12°C° 0 mm 5 m/S 757 mmHg 62%
    14:00 +12°C° 0 mm 5 m/S 756 mmHg 61%
    15:00 +13°C° 0 mm 5 m/S 756 mmHg 61%
    16:00 +11°C° 0 mm 4 m/S 756 mmHg 67%
    17:00 +10°C° 0 mm 4 m/S 756 mmHg 72%
    18:00 +8°C° 0 mm 4 m/S 756 mmHg 78%
    19:00 +7°C° 0 mm 4 m/S 757 mmHg 79%
    20:00 +7°C° 0 mm 4 m/S 757 mmHg 81%
    21:00 +6°C° 0 mm 4 m/S 757 mmHg 82%
    22:00 +6°C° 0.1 mm 4 m/S 757 mmHg 84%
    23:00 +6°C° 0.1 mm 4 m/S 757 mmHg 85%

    übermorgen, 19 Februar, Dienstag

    Zeit Temperatur Niederschläge Wind Luftdruck Luftfeuchtigkeit
    00:00 +6°C° 0.1 mm 4 m/S 757 mmHg 87%
    01:00 +7°C° 0.6 mm 3 m/S 757 mmHg 90%
    02:00 +7°C° 0.6 mm 3 m/S 757 mmHg 92%
    03:00 +7°C° 0.6 mm 3 m/S 757 mmHg 94%
    04:00 +7°C° 0.3 mm 3 m/S 757 mmHg 94%
    05:00 +7°C° 0.3 mm 3 m/S 757 mmHg 93%
    06:00 +5°C° 0.3 mm 3 m/S 758 mmHg 92%
    07:00 +6°C° 0 mm 4 m/S 758 mmHg 91%
    08:00 +6°C° 0 mm 4 m/S 758 mmHg 89%
    09:00 +6°C° 0 mm 5 m/S 759 mmHg 87%
    10:00 +7°C° 0 mm 5 m/S 759 mmHg 80%
    11:00 +8°C° 0 mm 5 m/S 759 mmHg 72%
    12:00 +9°C° 0 mm 5 m/S 759 mmHg 64%
    13:00 +10°C° 0 mm 4 m/S 759 mmHg 63%
    14:00 +10°C° 0 mm 4 m/S 759 mmHg 63%
    15:00 +10°C° 0 mm 4 m/S 759 mmHg 63%
    16:00 +8°C° 0 mm 4 m/S 760 mmHg 68%
    17:00 +8°C° 0 mm 3 m/S 760 mmHg 74%
    18:00 +7°C° 0 mm 2 m/S 760 mmHg 79%
    19:00 +7°C° 0 mm 2 m/S 760 mmHg 81%
    20:00 +5°C° 0 mm 3 m/S 761 mmHg 83%
    21:00 +5°C° 0 mm 3 m/S 761 mmHg 84%
    22:00 +4°C° 0 mm 3 m/S 761 mmHg 84%
    23:00 +4°C° 0 mm 3 m/S 761 mmHg 85%

    20 Februar, Mittwoch

    Zeit Temperatur Niederschläge Wind Luftdruck Luftfeuchtigkeit
    00:00 +4°C° 0 mm 3 m/S 761 mmHg 85%
    01:00 +4°C° 0 mm 3 m/S 761 mmHg 85%
    02:00 +3°C° 0 mm 3 m/S 761 mmHg 84%
    03:00 +3°C° 0 mm 3 m/S 761 mmHg 84%
    04:00 +3°C° 0 mm 3 m/S 761 mmHg 84%
    05:00 +3°C° 0 mm 3 m/S 761 mmHg 85%
    06:00 +3°C° 0 mm 3 m/S 761 mmHg 86%
    07:00 +4°C° 0 mm 4 m/S 761 mmHg 83%
    08:00 +5°C° 0 mm 4 m/S 761 mmHg 81%
    09:00 +6°C° 0 mm 4 m/S 761 mmHg 78%
    10:00 +7°C° 0 mm 5 m/S 761 mmHg 73%
    11:00 +8°C° 0 mm 5 m/S 761 mmHg 68%
    12:00 +10°C° 0 mm 5 m/S 761 mmHg 62%
    13:00 +10°C° 0 mm 5 m/S 761 mmHg 63%
    14:00 +10°C° 0 mm 5 m/S 761 mmHg 63%
    15:00 +10°C° 0 mm 5 m/S 761 mmHg 64%
    16:00 +10°C° 0 mm 4 m/S 761 mmHg 69%
    17:00 +8°C° 0 mm 4 m/S 761 mmHg 74%
    18:00 +8°C° 0 mm 3 m/S 761 mmHg 79%
    19:00 +8°C° 0 mm 3 m/S 761 mmHg 81%
    20:00 +7°C° 0 mm 3 m/S 762 mmHg 83%
    21:00 +6°C° 0 mm 4 m/S 762 mmHg 85%
    22:00 +7°C° 0 mm 3 m/S 762 mmHg 87%
    23:00 +7°C° 0 mm 3 m/S 762 mmHg 88%

    21 Februar, Donnerstag

    Zeit Temperatur Niederschläge Wind Luftdruck Luftfeuchtigkeit
    00:00 +5°C° 0 mm 3 m/S 762 mmHg 89%
    01:00 +5°C° 0 mm 3 m/S 762 mmHg 90%
    02:00 +5°C° 0 mm 3 m/S 763 mmHg 90%
    03:00 +5°C° 0 mm 3 m/S 763 mmHg 91%
    04:00 +5°C° 0 mm 3 m/S 763 mmHg 90%
    05:00 +5°C° 0 mm 3 m/S 763 mmHg 90%
    06:00 +5°C° 0 mm 3 m/S 763 mmHg 90%
    07:00 +7°C° 0 mm 3 m/S 764 mmHg 89%
    08:00 +7°C° 0 mm 3 m/S 764 mmHg 88%
    09:00 +8°C° 0 mm 3 m/S 764 mmHg 87%
    10:00 +9°C° 0 mm 3 m/S 765 mmHg 83%
    11:00 +11°C° 0 mm 3 m/S 765 mmHg 78%
    12:00 +12°C° 0 mm 4 m/S 765 mmHg 74%
    13:00 +13°C° 0 mm 3 m/S 765 mmHg 73%
    14:00 +13°C° 0 mm 3 m/S 765 mmHg 72%
    15:00 +14°C° 0 mm 2 m/S 765 mmHg 71%
    16:00 +13°C° 0 mm 2 m/S 765 mmHg 75%
    17:00 +12°C° 0 mm 1 m/S 765 mmHg 79%
    18:00 +12°C° 0 mm 1 m/S 766 mmHg 83%
    19:00 +11°C° 0 mm 1 m/S 766 mmHg 85%
    20:00 +11°C° 0 mm 1 m/S 766 mmHg 86%
    21:00 +10°C° 0 mm 1 m/S 766 mmHg 88%
    22:00 +10°C° 0 mm 1 m/S 767 mmHg 88%
    23:00 +9°C° 0 mm 1 m/S 767 mmHg 89%

    22 Februar, Freitag

    Zeit Temperatur Niederschläge Wind Luftdruck Luftfeuchtigkeit
    00:00 +9°C° 0 mm 1 m/S 767 mmHg 89%
    01:00 +9°C° 0 mm 1 m/S 767 mmHg 89%
    02:00 +8°C° 0 mm 1 m/S 767 mmHg 89%
    03:00 +8°C° 0 mm 1 m/S 767 mmHg 89%
    04:00 +8°C° 0 mm 1 m/S 768 mmHg 89%
    05:00 +8°C° 0 mm 1 m/S 768 mmHg 89%
    06:00 +7°C° 0 mm 1 m/S 768 mmHg 89%
    07:00 +9°C° 0 mm 1 m/S 768 mmHg 85%
    08:00 +10°C° 0 mm 1 m/S 769 mmHg 81%
    09:00 +11°C° 0 mm 1 m/S 769 mmHg 77%
    10:00 +12°C° 0 mm 1 m/S 769 mmHg 73%
    11:00 +14°C° 0 mm 1 m/S 769 mmHg 68%
    12:00 +15°C° 0 mm 1 m/S 769 mmHg 64%
    13:00 +16°C° 0 mm 1 m/S 769 mmHg 64%
    14:00 +16°C° 0 mm 2 m/S 768 mmHg 65%
    15:00 +16°C° 0 mm 2 m/S 768 mmHg 65%
    16:00 +15°C° 0 mm 2 m/S 768 mmHg 72%
    17:00 +12°C° 0 mm 3 m/S 768 mmHg 78%
    18:00 +11°C° 0 mm 3 m/S 768 mmHg 85%
    19:00 +10°C° 0 mm 3 m/S 769 mmHg 86%
    20:00 +10°C° 0 mm 3 m/S 769 mmHg 87%
    21:00 +10°C° 0 mm 3 m/S 769 mmHg 88%
    22:00 +9°C° 0 mm 3 m/S 769 mmHg 88%
    23:00 +9°C° 0 mm 3 m/S 769 mmHg 89%
    Mehr zeigen